Find Starlink 32003

NORAD ID: 60097 Int'l Des: 2024-117 Owner: SPXS Country: US Constellation: starlink operational
LEOCIRCULAR

Live Position

Loading 3D Globe...

About Starlink 32003

Description loading...

Upcoming Passes

Passes for default location (London). Set your location on the main map for personalized predictions.

Altitude History

Loading altitude history...

Two-Line Element Set

1 60097U 24117G 26126.39778675 -.00001120 00000-0 -25700-4 0 9990
2 60097 53.1604 128.9474 0001351 84.3237 275.7917 15.30179236105725
Epoch: May 6, 2026 • Age: 13 hours

Current Status

Altitude 477.7 km
Velocity 7.63 km/s
Sub-Earth Point -7.44°S, 103.48°E
Launch Date Jun 23, 2024
Age 1.8 years
Type internet

Technical Details

Classification Payload
Mass 730.00 kg
Dry Mass 700.00 kg
Total Mass 730.00 kg
Length 0.30 m
Diameter 4.10 m
Span 29.00 m
Shape Box + pan
Manufacturer SPXS
Bus Type Starlink V2M
Phase Status In Orbit
Owner/State SPXS/US

Most Searched